Time,TemperatureF,DewpointF,PressureIn,WindDirection,WindDirectionDegrees,WindSpeedMPH,WindSpeedGustMPH,Humidity,HourlyPrecipIn,Conditions,Clouds,dailyrainin,SoftwareType,DateUTC
2013-04-04 00:01:00,56.0,55.0,30.05,South,180,0.0,3.0,95,0.00,,,0.00,,2013-04-04 07:01:00,
2013-04-04 00:12:00,56.0,55.0,30.05,South,180,0.0,3.0,95,0.00,,,0.00,,2013-04-04 07:12:00,
2013-04-04 00:21:00,56.0,55.0,30.05,South,180,0.0,2.0,95,0.00,,,0.00,,2013-04-04 07:21:00,
2013-04-04 00:31:00,56.0,55.0,30.04,South,180,0.0,2.0,95,0.00,,,0.00,,2013-04-04 07:31:00,
2013-04-04 00:42:00,56.0,55.0,30.04,South,180,0.0,2.0,95,0.00,,,0.00,,2013-04-04 07:42:00,
2013-04-04 00:52:00,56.0,55.0,30.04,SE,128,1.0,4.0,95,0.00,,,0.00,,2013-04-04 07:52:00,
2013-04-04 01:02:00,55.0,54.0,30.04,SE,125,2.0,4.0,95,0.00,,,0.00,,2013-04-04 08:02:00,
2013-04-04 01:11:00,55.0,54.0,30.04,SE,125,2.0,4.0,95,0.00,,,0.00,,2013-04-04 08:11:00,
2013-04-04 01:22:00,55.0,54.0,30.04,ESE,120,3.0,4.0,95,0.00,,,0.00,,2013-04-04 08:22:00,
2013-04-04 01:32:00,55.0,54.0,30.03,SSE,165,0.0,5.0,95,0.00,,,0.00,,2013-04-04 08:32:00,
2013-04-04 01:42:00,55.0,54.0,30.03,SSE,165,0.0,5.0,95,0.00,,,0.00,,2013-04-04 08:42:00,
2013-04-04 01:52:00,55.0,54.0,30.03,East,81,2.0,5.0,96,0.00,,,0.00,,2013-04-04 08:52:00,
2013-04-04 02:02:00,55.0,54.0,30.03,SSE,158,1.0,6.0,96,0.00,,,0.00,,2013-04-04 09:02:00,
2013-04-04 02:12:00,55.0,54.0,30.03,SSE,158,1.0,6.0,96,0.00,,,0.00,,2013-04-04 09:12:00,
2013-04-04 02:22:00,54.0,53.0,30.02,ESE,102,0.0,6.0,96,0.00,,,0.00,,2013-04-04 09:22:00,
2013-04-04 02:32:00,54.0,53.0,30.02,ESE,103,0.0,2.0,96,0.00,,,0.00,,2013-04-04 09:32:00,
2013-04-04 02:42:00,54.0,53.0,30.02,ESE,103,0.0,2.0,96,0.00,,,0.00,,2013-04-04 09:42:00,
2013-04-04 02:53:00,54.0,53.0,30.02,ESE,122,0.0,2.0,96,0.00,,,0.00,,2013-04-04 09:53:00,
2013-04-04 03:03:00,55.0,54.0,30.02,SSW,205,1.0,3.0,96,0.00,,,0.00,,2013-04-04 10:03:00,
2013-04-04 03:12:00,55.0,54.0,30.02,SSW,205,1.0,3.0,96,0.00,,,0.00,,2013-04-04 10:12:00,
2013-04-04 03:23:00,55.0,54.0,30.02,SSW,207,0.0,2.0,96,0.00,,,0.00,,2013-04-04 10:23:00,
2013-04-04 03:32:00,55.0,54.0,30.03,SW,218,0.0,2.0,96,0.00,,,0.00,,2013-04-04 10:32:00,
2013-04-04 03:42:00,55.0,54.0,30.03,SW,218,0.0,2.0,96,0.00,,,0.00,,2013-04-04 10:42:00,
2013-04-04 03:53:00,55.0,54.0,30.03,SW,219,0.0,2.0,96,0.00,,,0.00,,2013-04-04 10:53:00,
2013-04-04 04:02:00,55.0,54.0,30.02,NNE,22,2.0,4.0,96,0.00,,,0.00,,2013-04-04 11:02:00,
2013-04-04 04:12:00,55.0,54.0,30.02,NNE,22,2.0,4.0,96,0.00,,,0.00,,2013-04-04 11:12:00,
2013-04-04 04:22:00,55.0,54.0,30.03,NE,39,3.0,6.0,96,0.00,,,0.00,,2013-04-04 11:22:00,
2013-04-04 04:32:00,55.0,54.0,30.02,NE,51,1.0,7.0,96,0.00,,,0.00,,2013-04-04 11:32:00,
2013-04-04 04:42:00,55.0,54.0,30.02,NE,51,1.0,7.0,96,0.00,,,0.00,,2013-04-04 11:42:00,
2013-04-04 04:53:00,55.0,54.0,30.01,NE,42,3.0,5.0,96,0.00,,,0.00,,2013-04-04 11:53:00,
2013-04-04 05:02:00,55.0,54.0,30.01,NE,42,3.0,6.0,96,0.00,,,0.00,,2013-04-04 12:02:00,
2013-04-04 05:12:00,55.0,54.0,30.01,NE,42,3.0,6.0,96,0.00,,,0.00,,2013-04-04 12:12:00,
2013-04-04 05:22:00,54.0,53.0,30.01,NE,37,2.0,5.0,96,0.00,,,0.00,,2013-04-04 12:22:00,
2013-04-04 05:32:00,54.0,53.0,30.01,NNW,342,1.0,3.0,96,0.00,,,0.00,,2013-04-04 12:32:00,
2013-04-04 05:42:00,54.0,53.0,30.01,NNW,342,1.0,3.0,96,0.00,,,0.00,,2013-04-04 12:42:00,
2013-04-04 05:52:00,54.0,53.0,30.01,WNW,292,0.0,1.0,96,0.00,,,0.00,,2013-04-04 12:52:00,
2013-04-04 06:02:00,55.0,54.0,30.01,NW,311,1.0,4.0,96,0.00,,,0.00,,2013-04-04 13:02:00,
2013-04-04 06:12:00,55.0,54.0,30.01,NW,311,1.0,4.0,96,0.00,,,0.00,,2013-04-04 13:12:00,
2013-04-04 06:22:00,55.0,54.0,30.01,NW,306,0.0,3.0,96,0.00,,,0.00,,2013-04-04 13:22:00,
2013-04-04 06:32:00,55.0,54.0,30.00,NW,306,0.0,1.0,96,0.00,,,0.00,,2013-04-04 13:32:00,
2013-04-04 06:42:00,55.0,54.0,30.00,NW,306,0.0,1.0,96,0.00,,,0.00,,2013-04-04 13:42:00,
2013-04-04 06:52:00,55.0,54.0,30.00,NW,306,0.0,1.0,96,0.00,,,0.00,,2013-04-04 13:52:00,
2013-04-04 07:02:00,55.0,54.0,30.02,NW,306,0.0,1.0,95,0.00,,,0.00,,2013-04-04 14:02:00,
2013-04-04 07:12:00,55.0,54.0,30.02,NW,306,0.0,1.0,95,0.00,,,0.00,,2013-04-04 14:12:00,
2013-04-04 07:22:00,55.0,54.0,30.02,NW,311,0.0,4.0,95,0.00,,,0.00,,2013-04-04 14:22:00,
2013-04-04 07:32:00,55.0,54.0,30.03,NE,36,0.0,5.0,95,0.00,,,0.00,,2013-04-04 14:32:00,
2013-04-04 07:42:00,55.0,54.0,30.03,NE,36,0.0,5.0,95,0.00,,,0.00,,2013-04-04 14:42:00,
2013-04-04 07:52:00,55.0,54.0,30.04,WNW,302,1.0,5.0,95,0.00,,,0.00,,2013-04-04 14:52:00,
2013-04-04 08:01:00,55.0,53.0,30.05,WSW,252,1.0,3.0,94,0.00,,,0.00,,2013-04-04 15:01:00,
2013-04-04 08:12:00,55.0,53.0,30.05,WSW,252,1.0,3.0,94,0.00,,,0.00,,2013-04-04 15:12:00,
2013-04-04 08:22:00,56.0,54.0,30.06,WNW,288,2.0,5.0,93,0.00,,,0.00,,2013-04-04 15:22:00,
2013-04-04 08:33:00,56.0,54.0,30.06,WNW,288,0.0,3.0,92,0.00,,,0.00,,2013-04-04 15:33:00,
2013-04-04 08:42:00,56.0,54.0,30.06,WNW,288,0.0,3.0,92,0.00,,,0.00,,2013-04-04 15:42:00,
2013-04-04 08:53:00,57.0,54.0,30.06,NW,311,2.0,7.0,91,0.00,,,0.00,,2013-04-04 15:53:00,
2013-04-04 09:02:00,57.0,53.0,30.06,NE,45,3.0,7.0,88,0.00,,,0.00,,2013-04-04 16:02:00,
2013-04-04 09:12:00,57.0,53.0,30.06,NE,45,3.0,7.0,88,0.00,,,0.00,,2013-04-04 16:12:00,
2013-04-04 09:23:00,59.0,55.0,30.05,NNE,33,4.0,8.0,87,0.00,,,0.00,,2013-04-04 16:23:00,
2013-04-04 09:32:00,62.0,56.0,30.04,ENE,65,4.0,6.0,82,0.00,,,0.00,,2013-04-04 16:32:00,
2013-04-04 09:42:00,62.0,56.0,30.04,ENE,65,4.0,6.0,82,0.00,,,0.00,,2013-04-04 16:42:00,
2013-04-04 09:53:00,63.0,56.0,30.05,NNW,339,0.0,6.0,78,0.00,,,0.00,,2013-04-04 16:53:00,
2013-04-04 10:02:00,63.0,56.0,30.05,East,90,1.0,6.0,79,0.00,,,0.00,,2013-04-04 17:02:00,
2013-04-04 10:12:00,63.0,56.0,30.05,East,90,1.0,6.0,79,0.00,,,0.00,,2013-04-04 17:12:00,
2013-04-04 10:22:00,65.0,55.0,30.05,SW,236,5.0,9.0,70,0.00,,,0.00,,2013-04-04 17:22:00,
2013-04-04 10:32:00,66.0,56.0,30.06,SW,234,6.0,11.0,71,0.00,,,0.00,,2013-04-04 17:32:00,
2013-04-04 10:42:00,66.0,56.0,30.06,SW,234,6.0,11.0,71,0.00,,,0.00,,2013-04-04 17:42:00,
2013-04-04 10:52:00,64.0,56.0,30.06,WSW,246,5.0,11.0,74,0.00,,,0.00,,2013-04-04 17:52:00,
2013-04-04 11:02:00,65.0,56.0,30.06,SW,232,4.0,8.0,73,0.00,,,0.00,,2013-04-04 18:02:00,
2013-04-04 11:12:00,65.0,56.0,30.06,SW,232,4.0,8.0,73,0.00,,,0.00,,2013-04-04 18:12:00,
2013-04-04 11:22:00,65.0,56.0,30.06,South,180,4.0,9.0,72,0.00,,,0.00,,2013-04-04 18:22:00,
2013-04-04 11:32:00,64.0,56.0,30.06,West,279,3.0,8.0,74,0.00,,,0.00,,2013-04-04 18:32:00,
2013-04-04 11:42:00,64.0,56.0,30.06,West,279,3.0,8.0,74,0.00,,,0.00,,2013-04-04 18:42:00,
2013-04-04 11:52:00,66.0,57.0,30.05,WSW,242,3.0,9.0,72,0.00,,,0.00,,2013-04-04 18:52:00,
2013-04-04 12:02:00,66.0,57.0,30.05,SSW,209,3.0,8.0,72,0.00,,,0.00,,2013-04-04 19:02:00,
2013-04-04 12:12:00,66.0,57.0,30.05,SSW,209,3.0,8.0,72,0.00,,,0.00,,2013-04-04 19:12:00,
2013-04-04 12:22:00,68.0,57.0,30.04,West,268,3.0,7.0,69,0.00,,,0.00,,2013-04-04 19:22:00,
2013-04-04 12:32:00,69.0,58.0,30.03,West,271,2.0,9.0,68,0.00,,,0.00,,2013-04-04 19:32:00,
2013-04-04 12:42:00,69.0,58.0,30.03,West,271,2.0,9.0,68,0.00,,,0.00,,2013-04-04 19:42:00,
2013-04-04 12:52:00,68.0,56.0,30.03,WSW,252,7.0,12.0,66,0.00,,,0.00,,2013-04-04 19:52:00,
2013-04-04 13:02:00,66.0,56.0,30.03,West,259,6.0,12.0,71,0.00,,,0.00,,2013-04-04 20:02:00,
2013-04-04 13:12:00,66.0,56.0,30.03,West,259,6.0,12.0,71,0.00,,,0.00,,2013-04-04 20:12:00,
2013-04-04 13:22:00,68.0,57.0,30.03,West,268,4.0,13.0,68,0.00,,,0.00,,2013-04-04 20:22:00,
2013-04-04 13:32:00,67.0,56.0,30.03,WSW,245,8.0,12.0,69,0.00,,,0.00,,2013-04-04 20:32:00,
2013-04-04 13:42:00,67.0,56.0,30.03,WSW,245,8.0,12.0,69,0.00,,,0.00,,2013-04-04 20:42:00,
2013-04-04 13:52:00,67.0,56.0,30.03,WSW,245,8.0,12.0,69,0.00,,,0.00,,2013-04-04 20:52:00,
2013-04-04 14:02:00,67.0,56.0,30.02,SSW,196,3.0,12.0,69,0.00,,,0.00,,2013-04-04 21:02:00,
2013-04-04 14:11:00,67.0,56.0,30.02,SSW,196,3.0,12.0,69,0.00,,,0.00,,2013-04-04 21:11:00,
2013-04-04 14:22:00,65.0,55.0,30.02,SW,225,6.0,10.0,70,0.00,,,0.00,,2013-04-04 21:22:00,
2013-04-04 14:32:00,65.0,55.0,30.02,SW,225,6.0,10.0,70,0.00,,,0.00,,2013-04-04 21:32:00,
2013-04-04 14:42:00,65.0,55.0,30.02,SW,225,6.0,10.0,70,0.00,,,0.00,,2013-04-04 21:42:00,
2013-04-04 14:53:00,66.0,57.0,30.01,SSW,199,4.0,9.0,72,0.00,,,0.00,,2013-04-04 21:53:00,
2013-04-04 15:03:00,67.0,56.0,30.01,SW,228,4.0,10.0,69,0.00,,,0.00,,2013-04-04 22:03:00,
2013-04-04 15:12:00,67.0,56.0,30.01,SW,228,4.0,10.0,69,0.00,,,0.00,,2013-04-04 22:12:00,
2013-04-04 15:22:00,68.0,56.0,30.00,SW,236,4.0,10.0,66,0.00,,,0.00,,2013-04-04 22:22:00,
2013-04-04 15:32:00,66.0,56.0,30.00,WSW,238,2.0,9.0,70,0.00,,,0.00,,2013-04-04 22:32:00,
2013-04-04 15:42:00,66.0,56.0,30.00,WSW,238,2.0,9.0,70,0.00,,,0.00,,2013-04-04 22:42:00,
2013-04-04 15:53:00,66.0,56.0,30.00,WSW,238,2.0,9.0,70,0.00,,,0.00,,2013-04-04 22:53:00,
2013-04-04 16:02:00,67.0,56.0,29.98,SSW,192,4.0,7.0,69,0.00,,,0.00,,2013-04-04 23:02:00,
2013-04-04 16:12:00,67.0,56.0,29.98,SSW,192,4.0,7.0,69,0.00,,,0.00,,2013-04-04 23:12:00,
2013-04-04 16:22:00,67.0,56.0,29.98,South,176,5.0,9.0,69,0.00,,,0.00,,2013-04-04 23:22:00,
2013-04-04 16:32:00,67.0,56.0,29.98,SSW,203,5.0,7.0,68,0.00,,,0.00,,2013-04-04 23:32:00,
2013-04-04 16:42:00,67.0,56.0,29.98,SSW,203,5.0,7.0,68,0.00,,,0.00,,2013-04-04 23:42:00,
2013-04-04 16:52:00,66.0,56.0,29.97,SSW,193,3.0,8.0,70,0.00,,,0.00,,2013-04-04 23:52:00,
2013-04-04 17:02:00,67.0,57.0,29.97,South,188,5.0,9.0,70,0.00,,,0.00,,2013-04-05 00:02:00,
2013-04-04 17:11:00,67.0,57.0,29.97,South,188,5.0,9.0,70,0.00,,,0.00,,2013-04-05 00:11:00,
2013-04-04 17:22:00,64.0,56.0,29.98,South,176,3.0,7.0,75,0.00,,,0.00,,2013-04-05 00:22:00,
2013-04-04 17:32:00,63.0,55.0,29.98,SSE,153,3.0,8.0,76,0.00,,,0.00,,2013-04-05 00:32:00,
2013-04-04 17:42:00,63.0,55.0,29.98,SSE,153,3.0,8.0,76,0.00,,,0.00,,2013-04-05 00:42:00,
2013-04-04 17:52:00,63.0,56.0,29.98,SSW,213,5.0,9.0,78,0.00,,,0.00,,2013-04-05 00:52:00,
2013-04-04 18:02:00,63.0,56.0,29.97,SSW,195,1.0,5.0,77,0.00,,,0.00,,2013-04-05 01:02:00,
2013-04-04 18:12:00,63.0,56.0,29.97,SSW,195,1.0,5.0,77,0.00,,,0.00,,2013-04-05 01:12:00,
2013-04-04 18:22:00,63.0,56.0,29.98,South,178,1.0,7.0,78,0.00,,,0.00,,2013-04-05 01:22:00,
2013-04-04 18:32:00,64.0,56.0,29.98,West,281,3.0,7.0,74,0.00,,,0.00,,2013-04-05 01:32:00,
2013-04-04 18:42:00,64.0,56.0,29.98,West,281,3.0,7.0,74,0.00,,,0.00,,2013-04-05 01:42:00,
2013-04-04 18:53:00,64.0,54.0,29.97,West,271,1.0,6.0,71,0.00,,,0.00,,2013-04-05 01:53:00,
2013-04-04 19:02:00,62.0,54.0,29.97,SSE,156,2.0,4.0,76,0.00,,,0.00,,2013-04-05 02:02:00,
2013-04-04 19:12:00,62.0,54.0,29.97,SSE,156,2.0,4.0,76,0.00,,,0.00,,2013-04-05 02:12:00,
2013-04-04 19:22:00,61.0,55.0,29.97,SSE,156,0.0,2.0,80,0.00,,,0.00,,2013-04-05 02:22:00,
2013-04-04 19:32:00,60.0,54.0,29.98,SSE,157,0.0,2.0,82,0.00,,,0.00,,2013-04-05 02:32:00,
2013-04-04 19:42:00,60.0,54.0,29.98,SSE,157,0.0,2.0,82,0.00,,,0.00,,2013-04-05 02:42:00,
2013-04-04 19:52:00,61.0,54.0,29.98,SW,232,0.0,2.0,79,0.00,,,0.00,,2013-04-05 02:52:00,
2013-04-04 20:02:00,61.0,54.0,29.98,NNW,346,4.0,6.0,77,0.00,,,0.00,,2013-04-05 03:02:00,
2013-04-04 20:12:00,61.0,54.0,29.98,NNW,346,4.0,6.0,77,0.00,,,0.00,,2013-04-05 03:12:00,
2013-04-04 20:22:00,61.0,53.0,29.99,NW,307,2.0,4.0,76,0.00,,,0.00,,2013-04-05 03:22:00,
2013-04-04 20:32:00,60.0,53.0,30.00,NW,325,5.0,8.0,79,0.00,,,0.00,,2013-04-05 03:32:00,
2013-04-04 20:42:00,60.0,53.0,30.00,NW,325,5.0,8.0,79,0.00,,,0.00,,2013-04-05 03:42:00,
2013-04-04 20:53:00,58.0,53.0,30.00,East,96,1.0,6.0,83,0.00,,,0.00,,2013-04-05 03:53:00,
2013-04-04 21:02:00,58.0,53.0,30.02,North,349,2.0,4.0,84,0.00,,,0.00,,2013-04-05 04:02:00,
2013-04-04 21:12:00,58.0,53.0,30.02,North,349,2.0,4.0,84,0.00,,,0.00,,2013-04-05 04:12:00,
2013-04-04 21:22:00,58.0,54.0,30.01,North,5,4.0,6.0,85,0.00,,,0.00,,2013-04-05 04:22:00,
2013-04-04 21:32:00,58.0,53.0,30.02,NNW,340,4.0,6.0,84,0.00,,,0.00,,2013-04-05 04:32:00,
2013-04-04 21:42:00,58.0,53.0,30.02,NNW,340,4.0,6.0,84,0.00,,,0.00,,2013-04-05 04:42:00,
2013-04-04 21:52:00,58.0,53.0,30.02,NNW,334,4.0,6.0,84,0.00,,,0.00,,2013-04-05 04:52:00,
2013-04-04 22:02:00,58.0,53.0,30.02,NNW,344,2.0,5.0,83,0.00,,,0.00,,2013-04-05 05:02:00,
2013-04-04 22:12:00,58.0,53.0,30.02,NNW,344,2.0,5.0,83,0.00,,,0.00,,2013-04-05 05:12:00,
2013-04-04 22:22:00,58.0,53.0,30.02,North,5,0.0,4.0,84,0.00,,,0.00,,2013-04-05 05:22:00,
2013-04-04 22:31:00,58.0,53.0,30.02,North,5,0.0,4.0,84,0.00,,,0.00,,2013-04-05 05:31:00,
2013-04-04 22:42:00,58.0,53.0,30.02,North,5,0.0,4.0,84,0.00,,,0.00,,2013-04-05 05:42:00,
2013-04-04 22:52:00,57.0,53.0,30.03,West,269,4.0,8.0,86,0.00,,,0.00,,2013-04-05 05:52:00,
2013-04-04 23:02:00,57.0,53.0,30.03,West,269,4.0,8.0,86,0.00,,,0.00,,2013-04-05 06:02:00,
2013-04-04 23:12:00,57.0,53.0,30.03,West,269,4.0,8.0,86,0.00,,,0.00,,2013-04-05 06:12:00,
2013-04-04 23:22:00,56.0,53.0,30.03,West,278,2.0,5.0,90,0.00,,,0.00,,2013-04-05 06:22:00,
2013-04-04 23:32:00,56.0,53.0,30.03,NW,315,0.0,5.0,90,0.00,,,0.00,,2013-04-05 06:32:00,
2013-04-04 23:42:00,56.0,53.0,30.03,NW,315,0.0,5.0,90,0.00,,,0.00,,2013-04-05 06:42:00,
2013-04-04 23:52:00,56.0,54.0,30.03,NNE,13,1.0,7.0,92,0.00,,,0.00,,2013-04-05 06:52:00,